Location: Adrasan
(36.3319°N, 30.4314°E)
Time: 09:03:24
(UTC+00:00)

EO 1 Delta rocket - Pass Details

Date: 09 December 2023
Orbit: 698 x 1789 km, 95.4° (Epoch: 01 March)

Event Time Altitude Azimuth Distance (km) Brightness Sun altitude
Rises 16:32:50 0° 170° (S) 4,175 7.8 -21.5°
Reaches altitude 10° 16:35:46 10° 170° (S) 3,049 7.1 -22.0°
Maximum altitude 16:42:34 87° 260° (W) 962 4.4 -23.4°
Drops below altitude 10° 16:47:57 10° 350° (N) 2,430 6.6 -24.4°
Sets 16:50:04 0° 351° (N) 3,278 7.3 -24.9°
